Location: Caltech
(34.1382°N, 118.1253°W)
Time: 14:29:39
(UTC-07:00)

AO-7 - Visible Passes

Search period start: 22 May 2017 00:00
Search period end: 01 June 2017 00:00
Orbit: 1440 x 1459 km, 101.6° (Epoch: 21 May)

Date Brightness Start Highest point End Pass type
(mag) Time Alt. Az. Time Alt. Az. Time Alt. Az.
22 May ? 04:22:12 10° NNE 04:30:32 70° ESE 04:38:51 10° S visible
23 May ? 03:23:28 10° NE 03:30:19 27° E 03:37:07 10° SSE visible
23 May ? 05:15:14 10° N 05:23:20 57° WNW 05:31:26 10° SW visible
24 May ? 04:15:17 10° NNE 04:23:34 63° ESE 04:31:49 10° S visible
25 May ? 03:16:48 10° NE 03:23:17 24° E 03:29:43 10° SSE visible
25 May ? 05:08:12 10° N 05:16:24 63° WNW 05:24:37 10° SSW visible
26 May ? 04:08:22 10° NNE 04:16:35 57° ESE 04:24:44 10° S visible
27 May ? 03:10:10 10° NE 03:16:14 22° E 03:22:15 10° SE visible
27 May ? 05:01:11 10° N 05:09:29 70° WNW 05:17:45 10° SSW visible
28 May ? 04:01:30 10° NNE 04:09:35 51° ESE 04:17:38 10° S visible
29 May ? 03:03:37 10° NE 03:09:11 19° E 03:14:41 10° SE visible
29 May ? 04:54:10 10° NNE 05:02:32 76° WNW 05:10:53 10° SSW visible
30 May ? 03:54:38 10° NNE 04:02:35 46° ESE 04:10:30 10° S visible
31 May ? 02:57:10 10° ENE 03:02:06 17° E 03:07:01 10° SE visible
31 May ? 04:47:11 10° NNE 04:55:35 84° WNW 05:03:57 10° SSW visible
